{"data":{"norad_id":65213,"epoch":"2026-05-25T00:41:25.322784Z","epoch_age_seconds":79461,"freshness":"FRESH","line1":"1 65213U 25176R   26145.02876531  .00018261  00000+0  55079-3 0  9994","line2":"2 65213  53.1604 157.7604 0001511  96.6946 263.4228 15.34370663 44818","mean_motion":15.34370663,"eccentricity":0.0001511,"inclination_deg":53.1604,"raan_deg":157.7604,"arg_perigee_deg":96.6946,"mean_anomaly_deg":263.4228,"bstar":0.00055079,"rev_number":4481,"period_min":93.84955244025,"perigee_km":461.75677320712,"apogee_km":463.82410147869,"semimajor_km":6840.9274373429,"source":"CELESTRAK","updated_at":"2026-05-25T13:38:20.720807Z"}}